Temp
9 10 11 12 12 12 12 13 10 14 15 12 7 10 12 16 17 17 17 16 16 15 14 14 14 14 14 13 13 14 12 10 10 14 14 13 14 13 10 7 11 5 5 8
9 10 11 12 12 13 13 14 12 13 15 7 5 11 14 15 17 16 17 16 16 14 13 13 12 12 13 13 13 12 12 10 9 11 12 13 15 12 8 7 5 8 5 8
9 10 11 12 12 13 13 14 8 12 13 13 10 13 15 16 16 16 16 15 15 13 13 11 11 12 12 13 12 12 12 9 10 10 12 11 13 12 10 10 6 7 6 10
10 11 11 12 13 13 14 14 10 12 8 9 10 13 14 15 16 16 16 15 15 13 13 12 11 12 12 12 12 11 10 10 11 9 9 11 12 12 10 10 10 9 10 8
10 11 11 12 13 12 13 14 11 11 9 12 10 10 13 14 15 15 16 15 13 14 12 13 11 11 11 12 11 10 8 8 10 10 8 8 10 10 9 9 10 8 9 8
10 11 11 12 12 12 13 14 14 15 6 7 9 8 12 13 14 13 14 13 11 12 12 12 11 12 11 11 10 8 7 5 6 7 5 6 7 8 8 9 8 9 9 10
10 11 11 12 12 13 14 14 14 14 5 7 9 11 13 13 13 13 12 13 11 11 12 12 12 11 10 9 7 8 5 4 1 3 3 6 10 10 9 9 10 8 9 8
10 11 11 12 13 13 14 14 15 15 2 8 11 11 10 11 11 10 10 11 12 13 13 6 9 5 7 6 5 4 5 2 1 3 4 7 12 10 9 9 9 8 8 7
10 11 12 13 13 13 14 14 15 15 9 8 14 11 11 8 8 8 9 9 11 12 3 3 6 7 10 9 9 6 4 2 3 -1 4 5 9 9 11 11 7 9 8 6
10 11 12 13 13 13 14 14 14 15 13 11 13 11 10 12 9 6 9 11 11 11 -0 1 3 6 7 7 6 4 2 0 2 -4 1 4 7 10 11 8 8 8 10 9
11 12 12 12 13 13 13 14 14 15 13 12 13 13 14 12 12 6 10 8 10 4 4 3 2 1 4 5 7 5 4 4 1 -0 -0 6 8 9 8 9 11 12 11 11
11 11 11 12 13 13 14 12 14 15 15 12 12 13 14 15 15 14 11 12 10 10 3 -1 -1 2 2 3 6 5 6 6 4 5 5 8 9 10 12 11 12 12 12 13
11 11 12 12 13 13 13 14 15 15 12 10 11 11 12 14 14 15 13 11 12 11 11 4 -0 3 1 3 3 6 6 6 4 6 9 7 10 11 11 11 11 11 11 12
11 11 11 12 13 14 14 15 15 15 14 10 10 11 12 12 13 14 15 16 13 13 11 6 1 2 4 1 4 3 6 6 6 4 7 9 11 12 13 12 12 11 11 10
11 12 11 12 13 13 14 14 14 15 15 8 10 10 11 11 12 13 14 15 14 12 9 2 3 4 2 1 1 2 7 6 4 5 12 10 11 13 12 12 12 11 10 9
11 11 11 12 12 13 13 13 13 14 15 14 5 9 9 11 11 13 13 12 12 12 11 7 7 7 6 3 3 8 11 12 12 11 12 11 11 11 11 10 10 9 7 7
10 11 11 11 12 13 14 12 11 13 14 14 5 5 8 9 10 10 10 11 11 10 9 6 6 6 6 0 2 11 12 12 12 12 10 9 10 10 10 9 8 6 6 5
10 10 11 11 11 12 11 11 11 11 13 13 2 1 7 8 8 9 8 9 8 7 5 4 3 3 3 4 5 7 8 9 10 10 9 9 8 8 7 6 5 4 2 1
9 9 10 10 11 10 9 9 10 11 11 8 2 3 4 6 5 5 6 6 3 4 4 3 4 2 4 3 2 3 5 6 7 8 8 7 6 5 3 3 2 1 -0 -0
8 9 9 8 8 8 9 9 9 9 8 7 1 2 3 4 4 3 4 3 2 4 2 4 2 3 3 0 0 1 3 5 6 5 4 3 2 1 0 -0 0 -0 -1 0
8 8 7 6 7 8 8 5 4 4 4 4 3 3 3 3 3 2 3 3 1 5 3 3 3 3 -0 -0 -0 0 1 2 2 2 1 -0 -0 -0 -1 -2 -1 -1 -1 -0
7 7 6 7 7 6 2 1 2 2 3 2 3 3 4 3 4 2 2 2 1 4 2 3 3 -0 -1 -1 -1 -1 -1 -1 -1 -1 -1 -2 -2 -2 -2 -2 -1 0 0 0
6 6 6 5 2 3 2 4 3 2 1 2 2 2 3 3 4 2 1 3 3 1 2 3 1 -0 -1 -1 -1 -2 -1 -1 -2 -2 -2 -2 -1 0 0 -0 0 -0 -1 -1
5 4 2 1 2 0 0 1 0 -0 0 1 1 1 2 1 1 0 3 1 0 2 2 1 -0 -1 -1 -1 -2 -2 -2 -1 -1 -1 -1 -1 -1 -1 -1 -1 -1 -1 -1 -2
2 1 0 -1 -2 -1 -1 -1 -0 -0 0 1 1 1 1 -0 0 -0 -0 -1 -1 -1 -2 -1 -1 -2 -1 -2 -2 -1 -1 -1 -1 -0 -1 -1 -1 -1 -1 -1 -1 -1 -1 -1
-1 -0 -1 -1 -1 -1 -1 -1 -1 -0 -0 0 0 -0 -0 -0 -0 -0 -0 -1 -2 -3 -2 -1 -1 -1 -1 -1 -1 -1 -1 -1 -1 -1 -1 -2 -2 -2 -2 -2 -3 -3 -3 -3
-1 -1 -1 -1 -0 -1 -1 -0 -0 -0 0 -0 -1 -2 -1 -2 -1 -1 -1 -1 -2 -1 -1 -1 -1 -1 -1 -1 -1 -1 -1 -1 -2 -2 -2 -3 -3 -3 -3 -3 -3 -3 -3 -3
Height
1423 1430 1436 1443 1450 1455 1463 1467 1470 1473 1475 1482 1487 1492 1487 1485 1482 1481 1482 1485 1489 1496 1499 1506 1508 1510 1510 1510 1510 1512 1515 1527 1539 1526 1522 1523 1523 1528 1536 1558 1551 1571 1571 1553
1419 1425 1433 1439 1446 1452 1458 1463 1467 1471 1473 1489 1494 1486 1485 1484 1482 1481 1482 1486 1487 1493 1501 1510 1510 1511 1510 1509 1510 1513 1515 1529 1547 1538 1531 1524 1523 1529 1536 1543 1553 1553 1574 1549
1414 1422 1429 1436 1443 1451 1458 1462 1470 1471 1473 1476 1479 1483 1485 1485 1482 1482 1483 1487 1488 1494 1502 1504 1510 1511 1511 1510 1511 1512 1513 1527 1530 1540 1528 1528 1527 1527 1532 1535 1559 1551 1550 1531
1412 1419 1425 1433 1440 1448 1455 1456 1461 1463 1474 1477 1476 1479 1483 1484 1484 1482 1484 1487 1488 1493 1503 1506 1510 1510 1511 1511 1512 1513 1515 1526 1527 1531 1531 1527 1524 1525 1529 1532 1532 1538 1530 1532
1409 1415 1422 1430 1437 1445 1451 1453 1457 1462 1466 1469 1475 1480 1483 1484 1483 1484 1486 1489 1492 1491 1498 1498 1507 1507 1509 1509 1512 1515 1518 1532 1527 1530 1533 1534 1529 1525 1526 1527 1526 1528 1527 1523
1407 1413 1419 1426 1434 1442 1447 1451 1454 1457 1468 1470 1475 1479 1479 1481 1481 1486 1486 1487 1492 1495 1496 1496 1497 1501 1503 1505 1511 1518 1522 1531 1537 1542 1541 1538 1540 1520 1519 1518 1517 1517 1524 1510
1406 1411 1417 1424 1432 1440 1448 1450 1453 1456 1471 1469 1470 1472 1475 1479 1481 1485 1488 1489 1491 1499 1497 1500 1503 1505 1507 1509 1514 1515 1525 1532 1547 1552 1550 1555 1511 1508 1508 1510 1507 1508 1507 1506
1405 1410 1416 1423 1431 1439 1446 1449 1452 1453 1468 1465 1468 1471 1474 1479 1482 1485 1489 1491 1492 1495 1497 1508 1514 1523 1518 1520 1520 1520 1519 1532 1552 1555 1553 1527 1502 1504 1507 1507 1504 1499 1502 1504
1405 1410 1415 1422 1429 1438 1445 1449 1451 1452 1454 1463 1462 1468 1472 1479 1484 1489 1492 1493 1496 1497 1502 1515 1529 1529 1518 1521 1520 1523 1524 1526 1539 1564 1555 1549 1509 1500 1499 1500 1514 1491 1495 1500
1406 1410 1414 1421 1429 1437 1444 1447 1449 1451 1452 1457 1460 1464 1470 1472 1479 1488 1492 1495 1498 1497 1512 1531 1533 1526 1521 1525 1527 1533 1538 1542 1547 1571 1557 1529 1500 1499 1499 1517 1507 1489 1493 1496
1407 1409 1415 1421 1429 1437 1443 1446 1448 1449 1450 1456 1459 1462 1464 1469 1473 1482 1489 1497 1498 1502 1513 1522 1526 1532 1522 1522 1517 1523 1527 1534 1546 1552 1559 1527 1496 1500 1506 1494 1487 1488 1490 1492
1408 1412 1417 1423 1430 1438 1443 1446 1448 1448 1450 1457 1460 1462 1464 1467 1470 1472 1482 1483 1486 1490 1505 1516 1520 1522 1523 1521 1522 1513 1520 1512 1519 1518 1510 1494 1493 1490 1489 1488 1487 1486 1486 1487
1412 1415 1419 1425 1431 1437 1443 1444 1446 1448 1451 1460 1463 1465 1466 1467 1470 1472 1475 1482 1483 1485 1487 1496 1507 1514 1514 1521 1518 1508 1506 1504 1510 1506 1491 1489 1488 1488 1487 1486 1485 1485 1485 1484
1414 1418 1422 1427 1431 1435 1439 1441 1444 1447 1451 1457 1465 1465 1467 1468 1469 1471 1473 1475 1479 1483 1487 1490 1499 1507 1501 1510 1506 1507 1502 1501 1499 1500 1488 1485 1484 1482 1482 1481 1480 1480 1480 1481
1416 1420 1425 1429 1432 1435 1439 1442 1445 1447 1452 1457 1463 1466 1468 1469 1470 1472 1473 1475 1477 1481 1485 1489 1496 1493 1498 1503 1504 1505 1492 1490 1497 1494 1479 1480 1478 1478 1477 1476 1475 1475 1476 1476
1420 1423 1427 1431 1433 1437 1439 1443 1447 1449 1450 1454 1465 1468 1469 1470 1471 1472 1473 1475 1477 1479 1480 1484 1485 1487 1491 1500 1502 1483 1479 1480 1479 1477 1476 1475 1475 1474 1474 1473 1472 1472 1473 1475
1423 1426 1429 1432 1434 1437 1440 1444 1447 1450 1452 1455 1466 1468 1469 1470 1472 1473 1475 1476 1477 1479 1480 1482 1483 1485 1489 1494 1498 1474 1476 1476 1475 1474 1473 1471 1470 1469 1469 1468 1468 1470 1472 1475
1425 1428 1431 1434 1437 1441 1444 1446 1448 1451 1454 1457 1467 1471 1471 1472 1471 1473 1474 1475 1477 1478 1480 1482 1483 1486 1488 1489 1477 1476 1473 1471 1469 1470 1469 1467 1466 1466 1465 1467 1469 1471 1474 1476
1427 1431 1434 1437 1440 1443 1446 1449 1451 1453 1458 1458 1464 1471 1476 1471 1472 1473 1475 1475 1479 1481 1480 1482 1484 1487 1486 1484 1480 1475 1473 1472 1469 1467 1466 1465 1464 1465 1466 1467 1467 1469 1477 1482
1431 1435 1437 1440 1443 1446 1449 1451 1453 1455 1458 1461 1466 1469 1472 1473 1474 1476 1478 1478 1481 1481 1482 1481 1482 1481 1483 1483 1480 1475 1471 1467 1464 1464 1464 1464 1466 1468 1470 1473 1477 1479 1479 1482
1434 1436 1439 1443 1445 1448 1451 1454 1458 1463 1465 1466 1468 1470 1471 1474 1475 1477 1479 1480 1483 1481 1482 1482 1481 1482 1485 1483 1480 1477 1472 1468 1466 1466 1467 1469 1471 1475 1477 1480 1482 1484 1486 1485
1436 1437 1442 1446 1448 1450 1456 1464 1466 1466 1469 1469 1469 1471 1473 1474 1474 1476 1480 1482 1484 1481 1483 1482 1481 1490 1489 1486 1483 1481 1478 1476 1475 1474 1475 1477 1479 1480 1481 1482 1484 1484 1484 1483
1438 1441 1444 1446 1453 1456 1461 1463 1466 1467 1467 1468 1469 1471 1472 1474 1475 1476 1479 1480 1480 1482 1483 1480 1485 1488 1488 1488 1487 1486 1485 1483 1482 1483 1483 1483 1483 1484 1484 1484 1482 1482 1481 1482
1442 1445 1450 1454 1457 1461 1462 1463 1465 1468 1469 1469 1470 1472 1473 1474 1475 1479 1478 1482 1482 1480 1481 1484 1487 1487 1488 1489 1489 1488 1488 1488 1487 1486 1486 1485 1485 1483 1483 1483 1484 1483 1481 1480
1446 1449 1455 1460 1462 1463 1465 1465 1466 1467 1468 1470 1471 1473 1475 1476 1478 1480 1482 1486 1489 1489 1492 1488 1488 1489 1489 1489 1489 1490 1490 1489 1489 1488 1487 1486 1486 1485 1484 1483 1481 1480 1479 1477
1452 1457 1461 1463 1464 1466 1467 1468 1468 1469 1470 1471 1472 1474 1476 1479 1479 1481 1483 1486 1491 1490 1486 1487 1489 1490 1490 1489 1490 1491 1491 1490 1489 1488 1487 1485 1485 1484 1483 1482 1481 1479 1477 1476
1459 1462 1462 1463 1464 1466 1468 1469 1470 1470 1471 1472 1474 1478 1477 1478 1480 1481 1481 1483 1483 1484 1485 1487 1488 1489 1490 1490 1490 1490 1490 1490 1490 1489 1488 1486 1484 1483 1482 1480 1478 1477 1475 1472
Wind_Speed
34 30 29 30 31 32 29 17 3 17 17 5 1 4 5 3 3 2 3 4 3 5 3 3 2 4 1 3 1 3 1 5 2 2 2 2 2 3 4 4 3 1 3 5
33 30 30 31 34 35 32 13 6 16 19 4 2 2 2 3 2 2 2 3 2 3 4 5 2 3 0 2 1 5 4 2 3 6 5 4 2 3 4 5 3 4 4 5
32 31 30 32 36 36 27 13 3 4 7 4 8 4 2 2 1 2 4 4 4 4 3 5 5 3 1 2 3 5 4 3 5 6 4 2 3 4 4 5 3 3 6 4
31 30 30 34 38 38 26 11 4 7 4 2 5 5 3 3 2 3 4 4 2 5 4 3 3 2 2 3 2 3 3 4 2 1 3 2 2 4 6 7 5 6 5 7
29 29 30 36 41 40 20 10 6 5 4 19 7 5 6 7 2 2 1 5 2 2 5 6 8 6 4 4 3 3 3 2 2 1 3 5 4 6 6 5 4 7 5 11
28 28 32 39 43 41 16 10 9 11 1 4 6 6 6 8 5 4 1 7 5 3 1 4 10 7 10 7 5 3 3 5 3 4 3 5 6 9 11 6 5 7 7 9
27 28 32 39 42 42 20 12 10 5 2 3 6 7 5 5 5 8 3 6 5 10 27 26 21 23 21 19 13 5 5 4 3 2 3 2 6 2 3 8 4 8 3 4
25 26 31 37 41 40 25 12 7 6 2 3 4 7 7 14 9 5 4 3 6 25 5 5 5 5 6 5 6 7 4 4 3 4 3 6 5 5 7 8 8 9 7 4
23 26 31 35 39 38 26 12 8 5 13 6 10 7 7 5 4 3 4 10 28 2 5 4 4 4 4 2 2 5 5 6 4 2 3 6 6 3 4 4 5 10 15 12
22 26 29 33 38 39 24 11 8 5 7 8 13 5 8 10 6 4 6 9 3 2 3 3 3 3 2 3 5 3 3 3 5 3 3 8 8 4 4 5 7 8 20 22
21 24 27 32 35 35 19 16 11 5 6 10 9 9 12 11 10 5 11 5 1 4 3 3 3 3 5 2 4 6 7 6 4 3 2 8 8 4 7 6 5 13 21 23
21 22 25 30 33 29 33 18 10 9 6 8 10 9 10 11 11 15 21 7 7 9 4 1 3 2 1 2 3 2 2 6 4 9 6 4 18 8 19 5 8 15 19 17
21 21 23 26 27 28 28 20 15 11 16 11 9 8 8 9 10 11 10 6 9 9 6 9 3 3 4 4 5 3 4 6 3 2 4 12 19 23 31 19 23 22 19 22
20 19 20 21 21 20 18 19 16 10 10 6 4 8 7 6 10 10 6 7 15 13 9 5 3 3 9 3 3 3 4 7 4 5 12 18 22 23 21 24 29 31 25 21
18 18 16 17 18 16 16 17 13 11 4 5 8 9 6 6 6 6 4 6 14 10 5 3 3 5 4 2 2 2 10 7 4 6 21 13 18 22 20 18 19 21 22 20
17 16 16 17 17 16 16 6 7 9 9 5 2 3 4 5 6 7 11 12 9 6 5 4 5 5 5 4 3 12 19 23 24 20 26 22 25 23 18 21 23 20 17 19
15 15 14 13 13 13 6 6 9 10 8 4 4 2 3 6 7 6 5 6 3 2 3 4 3 4 6 3 3 18 21 23 24 25 23 21 23 22 17 16 14 13 17 15
13 13 12 12 11 10 9 9 10 10 5 4 3 2 2 3 2 2 2 3 3 2 2 1 3 5 3 3 8 15 16 17 17 16 16 17 19 18 11 10 14 17 23 21
13 13 12 11 7 5 7 9 8 7 4 5 3 4 3 2 2 2 2 1 3 1 1 2 4 1 4 4 17 20 20 15 19 18 16 10 8 4 10 15 20 28 18 12
15 16 5 4 7 12 10 4 3 3 4 4 4 3 2 1 2 3 1 3 1 1 3 2 2 2 4 19 15 15 16 15 12 8 3 9 16 17 20 21 17 16 17 10
13 4 4 13 14 5 3 4 5 4 4 3 3 3 2 2 2 2 1 1 0 2 2 2 1 1 7 16 16 15 15 12 13 8 13 17 23 23 23 22 17 11 5 4
7 10 15 9 3 4 5 2 2 2 3 1 2 3 3 2 2 4 2 2 1 3 1 0 0 2 6 12 17 20 22 24 28 28 29 27 24 21 18 13 5 3 9 10
11 4 4 3 5 4 4 4 1 1 1 2 2 2 2 3 2 5 2 3 3 3 1 1 2 6 7 13 19 21 21 22 22 23 21 19 15 11 4 2 4 4 6 7
4 3 4 2 2 2 2 2 2 3 3 4 4 4 2 3 3 2 2 0 1 2 2 1 1 3 9 13 13 15 15 14 14 13 11 10 9 6 4 4 5 6 7 9
4 3 3 2 4 4 5 7 6 5 6 5 5 5 2 2 2 1 2 3 1 1 2 1 4 8 10 13 14 9 8 7 7 7 8 7 7 7 7 7 8 10 10 11
4 5 4 7 5 3 4 5 5 5 6 6 4 2 2 1 1 2 2 3 3 3 2 8 7 7 8 7 7 4 2 2 5 5 6 7 7 8 8 9 9 9 10 11
4 4 8 6 9 6 5 6 5 5 3 2 2 3 3 2 2 1 1 2 2 6 9 7 2 5 5 4 4 5 5 6 6 7 7 7 8 8 9 10 11 14 16 18
Wind_Direction
195 192 193 190 183 176 177 178 115 171 163 87 52 152 193 296 281 106 93 105 105 144 127 97 103 175 201 360 288 89 23 122 117 188 279 246 171 135 127 112 204 85 143 273
191 189 194 188 183 179 172 171 112 170 175 138 274 258 267 254 316 25 90 107 117 79 121 102 133 143 19 17 93 156 182 34 61 353 356 344 183 118 101 104 89 196 130 261
187 190 192 188 182 179 175 167 102 136 175 155 142 146 222 245 313 65 83 117 92 99 75 29 146 133 22 43 90 102 111 97 153 187 198 184 177 164 154 124 124 183 228 260
185 189 190 187 181 179 179 172 187 162 182 212 137 137 189 175 172 79 51 52 84 140 115 80 115 128 113 52 101 57 88 128 118 80 11 329 253 193 183 192 182 171 244 214
184 188 189 185 180 180 186 158 142 143 151 159 121 150 199 176 146 68 64 118 100 86 148 177 192 141 184 186 55 80 19 170 131 193 360 10 282 255 224 221 207 256 263 275
183 188 187 184 181 181 182 151 156 173 130 115 112 190 179 199 132 46 122 157 106 62 151 105 103 111 112 127 129 115 81 130 105 258 3 342 327 222 200 198 196 171 205 240
182 185 186 183 183 183 180 170 163 146 197 150 174 167 173 160 191 144 82 110 99 128 113 101 90 78 75 69 45 68 122 97 72 186 24 355 238 237 215 216 225 206 239 222
177 182 183 183 184 181 186 183 181 175 132 174 127 144 119 108 93 80 94 56 131 140 116 64 49 353 20 12 41 30 73 113 88 142 203 301 293 198 183 176 260 198 208 172
174 177 180 183 184 181 188 202 210 221 130 230 157 140 160 141 119 47 80 113 149 129 77 74 133 195 207 294 16 63 62 67 110 96 150 224 241 269 179 116 294 208 186 172
169 173 175 178 181 184 189 205 236 208 115 145 160 149 169 137 113 106 122 147 199 61 70 83 143 223 192 186 178 202 34 13 162 134 232 286 244 206 146 102 244 184 191 190
159 161 169 173 176 182 188 205 232 186 119 140 165 153 150 151 153 135 153 91 276 52 76 125 203 146 218 144 185 178 169 156 202 106 74 280 167 101 167 223 214 186 195 204
147 151 160 169 172 173 181 233 188 135 126 131 152 158 181 186 173 145 164 175 159 163 91 105 110 155 158 142 236 74 228 191 182 185 215 227 196 227 223 242 240 214 213 236
144 145 152 160 170 172 179 200 167 147 114 104 119 117 132 165 174 176 148 189 169 171 144 147 148 160 133 168 238 168 250 174 211 80 259 242 254 245 252 257 254 258 262 250
143 142 143 155 159 168 182 179 158 149 124 112 112 131 123 136 173 180 183 186 175 162 155 119 139 151 196 206 197 164 200 154 198 261 279 274 272 269 273 269 266 263 263 254
140 146 145 142 145 147 157 162 147 147 135 134 126 126 104 119 137 178 162 163 173 162 137 112 204 158 129 75 69 264 195 200 167 232 265 251 277 298 298 287 282 279 257 236
141 142 141 143 146 147 146 106 126 134 120 108 114 144 124 126 139 159 160 173 180 175 159 167 190 183 175 149 200 254 240 237 255 256 279 287 293 290 283 284 280 268 232 211
140 141 141 143 148 154 123 127 143 146 133 99 72 31 132 151 143 153 166 184 183 183 161 187 172 148 181 125 196 260 273 276 278 280 284 285 287 291 295 282 257 211 190 185
140 138 141 144 141 131 100 98 135 143 124 102 109 275 115 146 155 152 188 177 168 75 131 162 114 126 115 244 277 323 322 313 298 304 299 290 290 295 268 228 196 171 143 131
139 138 132 126 134 103 113 112 125 146 115 114 84 134 213 164 123 116 110 124 65 353 195 220 147 139 219 357 334 332 328 313 300 307 307 294 287 201 168 172 160 144 125 104
141 137 111 108 118 128 121 84 93 89 53 53 84 117 108 85 116 60 83 41 105 246 253 155 141 228 71 10 3 353 345 334 318 304 52 131 126 131 125 117 112 95 94 116
141 116 71 121 127 112 103 68 53 28 49 33 72 76 119 94 109 143 53 139 2 228 249 174 249 14 360 1 17 26 32 36 55 80 108 111 115 107 92 80 80 83 56 325
118 116 115 121 94 67 80 56 48 55 180 83 113 112 114 125 131 108 152 162 83 248 35 103 244 51 20 59 66 77 83 88 91 94 96 90 83 77 72 69 61 268 268 272
107 83 93 45 14 78 122 146 265 144 180 128 138 87 110 119 104 80 90 172 217 128 170 192 76 120 85 88 89 82 79 77 74 70 67 62 60 53 45 285 275 272 287 286
67 53 65 49 73 64 94 73 89 120 117 112 111 73 70 49 66 65 173 88 77 221 218 162 90 117 118 111 102 90 84 81 74 64 52 44 42 37 17 334 315 309 299 294
75 52 78 62 109 93 114 104 107 107 124 129 108 83 84 40 93 59 100 41 301 156 211 53 104 126 120 107 106 94 97 78 53 25 8 359 353 345 339 332 327 321 318 315
65 62 86 123 94 99 107 112 114 117 136 111 91 104 83 65 118 92 193 121 213 217 178 126 126 113 110 85 94 80 36 297 308 330 355 358 358 354 351 347 344 334 327 320
55 53 107 103 104 107 107 104 96 113 112 96 103 89 186 91 86 135 66 186 169 143 158 142 134 123 113 92 54 16 25 28 17 11 8 5 3 1 346 336 329 321 318 310